TimeEST,TemperatureF,Dew PointF,Humidity,Sea Level PressureIn,VisibilityMPH,Wind Direction,Wind SpeedMPH,Gust SpeedMPH,PrecipitationIn,Events,Conditions,WindDirDegrees,DateUTC
12:15 AM,30.7,28.9,93,29.67,10.0,Calm,Calm,-,N/A,,Scattered Clouds,0,2013-02-27 05:15:00
12:35 AM,30.2,28.0,92,29.68,10.0,WSW,3.5,-,N/A,,Scattered Clouds,240,2013-02-27 05:35:00
12:55 AM,39.2,36.1,89,29.69,10.0,West,3.5,-,N/A,,Clear,260,2013-02-27 05:55:00
1:15 AM,39.2,36.1,89,29.70,10.0,WSW,3.5,-,N/A,,Clear,240,2013-02-27 06:15:00
1:35 AM,41.5,37.9,87,29.71,10.0,Calm,Calm,-,N/A,,Clear,0,2013-02-27 06:35:00
1:55 AM,42.3,39.6,90,29.71,10.0,West,4.6,-,N/A,,Clear,260,2013-02-27 06:55:00
2:15 AM,41.9,39.6,91,29.71,10.0,West,4.6,-,N/A,,Clear,260,2013-02-27 07:15:00
2:35 AM,42.1,38.8,88,29.72,10.0,West,10.4,-,N/A,,Clear,260,2013-02-27 07:35:00
2:55 AM,42.3,38.7,87,29.73,10.0,West,4.6,-,N/A,,Clear,260,2013-02-27 07:55:00
3:15 AM,38.5,34.5,86,29.73,10.0,West,8.1,-,N/A,,Scattered Clouds,260,2013-02-27 08:15:00
3:35 AM,39.2,34.3,83,29.73,10.0,WSW,5.8,-,N/A,,Scattered Clouds,250,2013-02-27 08:35:00
3:55 AM,39.4,33.8,80,29.72,10.0,WSW,9.2,-,N/A,,Clear,250,2013-02-27 08:55:00
4:15 AM,39.9,34.2,80,29.73,10.0,WSW,4.6,-,N/A,,Clear,240,2013-02-27 09:15:00
4:35 AM,39.9,34.3,80,29.74,10.0,SW,6.9,-,N/A,,Clear,230,2013-02-27 09:35:00
4:55 AM,39.7,34.2,80,29.74,10.0,SW,5.8,-,N/A,,Clear,230,2013-02-27 09:55:00
5:15 AM,40.1,34.2,79,29.74,10.0,SW,5.8,-,N/A,,Clear,220,2013-02-27 10:15:00
5:35 AM,40.3,34.7,80,29.75,10.0,SW,8.1,-,N/A,,Clear,220,2013-02-27 10:35:00
5:55 AM,40.3,34.9,81,29.75,10.0,SW,6.9,-,N/A,,Clear,220,2013-02-27 10:55:00
6:15 AM,40.5,34.7,80,29.77,10.0,WSW,6.9,-,N/A,,Clear,240,2013-02-27 11:15:00
6:35 AM,40.5,34.7,80,29.77,10.0,SW,5.8,-,N/A,,Clear,230,2013-02-27 11:35:00
6:55 AM,40.5,34.5,79,29.78,10.0,SW,5.8,-,N/A,,Clear,230,2013-02-27 11:55:00
7:15 AM,40.6,34.7,79,29.80,10.0,SW,5.8,-,N/A,,Clear,230,2013-02-27 12:15:00
7:55 AM,41.9,34.7,76,29.82,10.0,SW,5.8,-,N/A,,Clear,230,2013-02-27 12:55:00
8:15 AM,43.0,35.4,75,29.82,10.0,WSW,6.9,-,N/A,,Clear,250,2013-02-27 13:15:00
8:35 AM,43.7,34.9,71,29.83,10.0,SW,6.9,-,N/A,,Clear,230,2013-02-27 13:35:00
8:55 AM,44.6,34.7,68,29.84,10.0,WSW,5.8,18.4,N/A,,Clear,250,2013-02-27 13:55:00
9:15 AM,44.8,34.7,68,29.84,10.0,WSW,6.9,17.3,N/A,,Clear,250,2013-02-27 14:15:00
9:35 AM,46.4,34.5,63,29.85,10.0,WSW,10.4,-,N/A,,Clear,240,2013-02-27 14:35:00
9:55 AM,46.8,34.5,62,29.85,10.0,WSW,9.2,-,N/A,,Clear,250,2013-02-27 14:55:00
10:15 AM,46.9,34.3,62,29.84,10.0,WSW,6.9,-,N/A,,Clear,250,2013-02-27 15:15:00
10:35 AM,47.8,34.3,60,29.84,10.0,WNW,9.2,-,N/A,,Clear,290,2013-02-27 15:35:00
10:55 AM,48.7,34.5,58,29.84,10.0,WSW,8.1,-,N/A,,Clear,250,2013-02-27 15:55:00
11:15 AM,49.5,34.5,56,29.85,10.0,West,6.9,-,N/A,,Clear,260,2013-02-27 16:15:00
11:35 AM,50.0,35.1,57,29.84,10.0,West,4.6,-,N/A,,Clear,270,2013-02-27 16:35:00
11:55 AM,50.0,35.1,57,29.82,10.0,WNW,3.5,-,N/A,,Clear,290,2013-02-27 16:55:00
12:15 PM,50.7,34.5,54,29.81,10.0,West,4.6,-,N/A,,Clear,260,2013-02-27 17:15:00
12:35 PM,52.0,35.1,53,29.81,10.0,West,4.6,-,N/A,,Clear,260,2013-02-27 17:35:00
12:55 PM,52.9,34.7,50,29.80,10.0,West,4.6,-,N/A,,Clear,260,2013-02-27 17:55:00
1:15 PM,53.6,35.4,50,29.80,10.0,SW,5.8,-,N/A,,Clear,220,2013-02-27 18:15:00
1:35 PM,55.0,35.4,48,29.79,10.0,SW,8.1,-,N/A,,Clear,220,2013-02-27 18:35:00
1:55 PM,55.8,35.6,47,29.79,10.0,SSW,6.9,-,N/A,,Clear,210,2013-02-27 18:55:00
2:15 PM,56.3,35.2,45,29.79,10.0,WSW,6.9,-,N/A,,Clear,240,2013-02-27 19:15:00
2:35 PM,56.7,36.3,47,29.78,10.0,West,6.9,-,N/A,,Clear,260,2013-02-27 19:35:00
2:55 PM,57.2,36.7,46,29.78,10.0,West,5.8,-,N/A,,Clear,270,2013-02-27 19:55:00
3:15 PM,57.6,37.4,47,29.78,10.0,SW,5.8,-,N/A,,Clear,230,2013-02-27 20:15:00
3:35 PM,57.4,36.5,46,29.78,10.0,SW,9.2,-,N/A,,Clear,220,2013-02-27 20:35:00
3:55 PM,57.4,36.9,46,29.78,10.0,SW,6.9,-,N/A,,Clear,230,2013-02-27 20:55:00
4:15 PM,57.6,37.0,46,29.77,10.0,SW,6.9,-,N/A,,Clear,230,2013-02-27 21:15:00
4:35 PM,57.9,37.0,46,29.76,10.0,SW,9.2,-,N/A,,Clear,220,2013-02-27 21:35:00
4:55 PM,57.4,37.8,48,29.76,10.0,SSW,4.6,-,N/A,,Clear,210,2013-02-27 21:55:00
5:15 PM,56.7,37.2,48,29.77,10.0,SW,6.9,-,N/A,,Clear,220,2013-02-27 22:15:00
5:35 PM,55.8,38.7,53,29.77,10.0,SSW,6.9,-,N/A,,Clear,210,2013-02-27 22:35:00
5:55 PM,54.1,39.6,58,29.77,10.0,SSW,4.6,-,N/A,,Clear,210,2013-02-27 22:55:00
6:15 PM,52.5,40.1,63,29.77,10.0,SSW,3.5,-,N/A,,Clear,210,2013-02-27 23:15:00
6:35 PM,52.5,40.1,63,29.77,10.0,Calm,Calm,-,N/A,,Clear,0,2013-02-27 23:35:00
6:55 PM,51.3,40.1,66,29.78,10.0,SSW,3.5,-,N/A,,Clear,210,2013-02-27 23:55:00
7:15 PM,50.5,40.5,68,29.78,10.0,SW,3.5,-,N/A,,Clear,220,2013-02-28 00:15:00
7:35 PM,50.0,41.0,71,29.78,10.0,SW,4.6,-,N/A,,Clear,220,2013-02-28 00:35:00
7:55 PM,49.8,41.0,72,29.78,10.0,SSW,4.6,-,N/A,,Clear,210,2013-02-28 00:55:00
8:35 PM,48.4,41.2,76,29.78,10.0,SSW,5.8,-,N/A,,Clear,210,2013-02-28 01:35:00
9:15 PM,47.5,40.5,77,29.78,10.0,SSW,5.8,-,N/A,,Clear,210,2013-02-28 02:15:00
9:35 PM,49.5,40.1,70,29.78,10.0,SW,5.8,-,N/A,,Clear,220,2013-02-28 02:35:00
9:55 PM,49.5,39.7,69,29.78,10.0,SW,4.6,-,N/A,,Clear,220,2013-02-28 02:55:00
10:15 PM,47.8,39.7,74,29.78,10.0,SSW,4.6,-,N/A,,Clear,210,2013-02-28 03:15:00
10:35 PM,46.9,40.1,77,29.78,10.0,SSW,3.5,-,N/A,,Clear,200,2013-02-28 03:35:00
10:55 PM,46.4,40.1,79,29.78,10.0,SSW,4.6,-,N/A,,Clear,210,2013-02-28 03:55:00
11:15 PM,45.5,39.9,81,29.78,10.0,SSW,5.8,-,N/A,,Clear,210,2013-02-28 04:15:00
11:35 PM,45.0,39.9,82,29.77,10.0,SSW,5.8,-,N/A,,Clear,210,2013-02-28 04:35:00
11:55 PM,44.4,40.1,85,29.77,10.0,SSW,6.9,-,N/A,,Clear,210,2013-02-28 04:55:00